• In Uzbekistan
  • List of Countries
  • For 7 days
  • Water Temperature
  • Satellite Maps
  • Weather Map
  • Weather Widgets
  • user-avatar
    Login

    Hourly Weather Hobart

    Today, 26 April, Wednesday

    Time Temperature Precipitation Wind Pressure Humidity
    00:00 +8°C° 0.2 mm 3 mps 735 mmHg 88%
    01:00 +8°C° 0.2 mm 3 mps 735 mmHg 89%
    02:00 +7°C° 0.8 mm 4 mps 736 mmHg 90%
    03:00 +7°C° 0.8 mm 5 mps 736 mmHg 92%
    04:00 +6°C° 0 mm 8 mps 737 mmHg 93%
    05:00 +6°C° 0.7 mm 7 mps 738 mmHg 93%
    06:00 +5°C° 0.7 mm 7 mps 739 mmHg 92%
    07:00 +5°C° 0.7 mm 7 mps 739 mmHg 92%
    08:00 +5°C° 0.1 mm 7 mps 740 mmHg 86%
    09:00 +6°C° 0.1 mm 7 mps 741 mmHg 80%
    10:00 +6°C° 0.1 mm 7 mps 742 mmHg 74%
    11:00 +8°C° 0 mm 7 mps 742 mmHg 67%
    12:00 +9°C° 0 mm 7 mps 742 mmHg 59%
    13:00 +9°C° 0 mm 7 mps 743 mmHg 51%
    14:00 +9°C° 0.1 mm 7 mps 743 mmHg 55%
    15:00 +8°C° 0.1 mm 7 mps 744 mmHg 58%
    16:00 +8°C° 0.1 mm 7 mps 744 mmHg 62%
    17:00 +6°C° 0.1 mm 7 mps 745 mmHg 68%
    18:00 +5°C° 0.1 mm 6 mps 746 mmHg 75%
    19:00 +3°C° 0.1 mm 6 mps 747 mmHg 82%
    20:00 +3°C° 0.1 mm 5 mps 747 mmHg 81%
    21:00 +3°C° 0.1 mm 5 mps 748 mmHg 81%
    22:00 +3°C° 0.1 mm 5 mps 748 mmHg 81%
    23:00 +3°C° 0.1 mm 5 mps 749 mmHg 82%

    Tomorrow, 27 April, Thursday

    Time Temperature Precipitation Wind Pressure Humidity
    00:00 +4°C° 0.1 mm 4 mps 749 mmHg 83%
    01:00 +4°C° 0.1 mm 4 mps 749 mmHg 84%
    02:00 +4°C° 0.1 mm 4 mps 749 mmHg 86%
    03:00 +4°C° 0.1 mm 4 mps 749 mmHg 88%
    04:00 +3°C° 0.1 mm 4 mps 749 mmHg 90%
    05:00 +3°C° 0 mm 4 mps 750 mmHg 91%
    06:00 +1°C° 0 mm 4 mps 750 mmHg 93%
    07:00 +1°C° 0 mm 4 mps 750 mmHg 95%
    08:00 +4°C° 0 mm 4 mps 750 mmHg 84%
    09:00 +6°C° 0 mm 4 mps 750 mmHg 73%
    10:00 +8°C° 0 mm 5 mps 751 mmHg 62%
    11:00 +8°C° 0 mm 5 mps 750 mmHg 60%
    12:00 +9°C° 0 mm 5 mps 750 mmHg 59%
    13:00 +9°C° 0 mm 5 mps 750 mmHg 58%
    14:00 +10°C° 0 mm 5 mps 749 mmHg 60%
    15:00 +11°C° 0 mm 4 mps 749 mmHg 61%
    16:00 +11°C° 0 mm 4 mps 749 mmHg 63%
    17:00 +9°C° 0 mm 5 mps 749 mmHg 68%
    18:00 +9°C° 0 mm 5 mps 749 mmHg 73%
    19:00 +8°C° 0 mm 5 mps 748 mmHg 78%
    20:00 +8°C° 0 mm 5 mps 748 mmHg 81%
    21:00 +8°C° 0 mm 5 mps 748 mmHg 85%
    22:00 +8°C° 0 mm 5 mps 748 mmHg 89%
    23:00 +8°C° 0 mm 5 mps 748 mmHg 90%

    Day after tomorrow, 28 April, Friday

    Time Temperature Precipitation Wind Pressure Humidity
    00:00 +10°C° 0 mm 4 mps 748 mmHg 91%
    01:00 +10°C° 0 mm 4 mps 748 mmHg 92%
    02:00 +10°C° 0 mm 4 mps 748 mmHg 94%
    03:00 +8°C° 0 mm 4 mps 748 mmHg 95%
    04:00 +8°C° 0 mm 4 mps 748 mmHg 96%
    05:00 +8°C° 0 mm 4 mps 748 mmHg 96%
    06:00 +9°C° 0 mm 3 mps 748 mmHg 96%
    07:00 +9°C° 0 mm 3 mps 749 mmHg 96%
    08:00 +10°C° 0 mm 4 mps 749 mmHg 88%
    09:00 +12°C° 0 mm 4 mps 749 mmHg 81%
    10:00 +13°C° 0 mm 4 mps 749 mmHg 73%
    11:00 +14°C° 0 mm 5 mps 748 mmHg 71%
    12:00 +14°C° 0 mm 5 mps 747 mmHg 69%
    13:00 +15°C° 0 mm 6 mps 747 mmHg 67%
    14:00 +14°C° 0 mm 6 mps 747 mmHg 70%
    15:00 +12°C° 0 mm 7 mps 746 mmHg 73%
    16:00 +11°C° 0 mm 7 mps 746 mmHg 76%
    17:00 +11°C° 0 mm 7 mps 746 mmHg 79%
    18:00 +13°C° 0 mm 6 mps 746 mmHg 82%
    19:00 +13°C° 0 mm 6 mps 746 mmHg 85%
    20:00 +13°C° 0 mm 6 mps 746 mmHg 86%
    21:00 +13°C° 0 mm 6 mps 746 mmHg 86%
    22:00 +13°C° 0 mm 6 mps 746 mmHg 87%
    23:00 +12°C° 0 mm 7 mps 746 mmHg 85%

    29 April, Saturday

    Time Temperature Precipitation Wind Pressure Humidity
    00:00 +11°C° 0 mm 7 mps 746 mmHg 84%
    01:00 +11°C° 0 mm 8 mps 746 mmHg 82%
    02:00 +11°C° 0.1 mm 7 mps 747 mmHg 83%
    03:00 +10°C° 0.1 mm 7 mps 747 mmHg 83%
    04:00 +10°C° 0.1 mm 7 mps 747 mmHg 84%
    05:00 +10°C° 0 mm 7 mps 747 mmHg 85%
    06:00 +9°C° 0 mm 7 mps 748 mmHg 85%
    07:00 +9°C° 0 mm 6 mps 749 mmHg 86%
    08:00 +10°C° 0 mm 6 mps 749 mmHg 81%
    09:00 +11°C° 0 mm 6 mps 750 mmHg 76%
    10:00 +13°C° 0 mm 6 mps 751 mmHg 71%
    11:00 +13°C° 0 mm 6 mps 751 mmHg 69%
    12:00 +14°C° 0 mm 5 mps 751 mmHg 67%
    13:00 +14°C° 0 mm 5 mps 751 mmHg 65%
    14:00 +14°C° 0 mm 5 mps 752 mmHg 66%
    15:00 +14°C° 0 mm 4 mps 752 mmHg 66%
    16:00 +14°C° 0 mm 4 mps 752 mmHg 66%
    17:00 +12°C° 0 mm 4 mps 752 mmHg 74%
    18:00 +10°C° 0 mm 3 mps 753 mmHg 82%
    19:00 +8°C° 0 mm 3 mps 753 mmHg 90%
    20:00 +7°C° 0 mm 2 mps 754 mmHg 92%
    21:00 +6°C° 0 mm 2 mps 754 mmHg 93%
    22:00 +7°C° 0 mm 1 mps 754 mmHg 95%
    23:00 +7°C° 0 mm 1 mps 754 mmHg 95%

    30 April, Sunday

    Time Temperature Precipitation Wind Pressure Humidity
    00:00 +7°C° 0 mm 1 mps 753 mmHg 95%
    01:00 +6°C° 0 mm 2 mps 753 mmHg 95%
    02:00 +6°C° 0 mm 2 mps 753 mmHg 95%
    03:00 +5°C° 0 mm 2 mps 752 mmHg 95%
    04:00 +5°C° 0 mm 2 mps 752 mmHg 95%
    05:00 +5°C° 0 mm 2 mps 752 mmHg 95%
    06:00 +5°C° 0 mm 2 mps 752 mmHg 95%
    07:00 +5°C° 0 mm 2 mps 752 mmHg 95%
    08:00 +7°C° 0 mm 2 mps 752 mmHg 86%
    09:00 +10°C° 0 mm 2 mps 751 mmHg 78%
    10:00 +14°C° 0 mm 2 mps 751 mmHg 69%
    11:00 +15°C° 0 mm 2 mps 750 mmHg 65%
    12:00 +16°C° 0 mm 2 mps 750 mmHg 60%
    13:00 +17°C° 0 mm 2 mps 749 mmHg 56%
    14:00 +16°C° 0 mm 2 mps 748 mmHg 58%
    15:00 +16°C° 0 mm 2 mps 748 mmHg 61%
    16:00 +15°C° 0 mm 2 mps 747 mmHg 63%
    17:00 +14°C° 0 mm 2 mps 747 mmHg 72%
    18:00 +12°C° 0 mm 2 mps 747 mmHg 80%
    19:00 +9°C° 0 mm 2 mps 747 mmHg 89%
    20:00 +9°C° 0 mm 3 mps 746 mmHg 90%
    21:00 +8°C° 0 mm 3 mps 746 mmHg 90%
    22:00 +7°C° 0 mm 4 mps 745 mmHg 91%
    23:00 +7°C° 0 mm 4 mps 744 mmHg 90%

    1 May, Monday

    Time Temperature Precipitation Wind Pressure Humidity
    00:00 +8°C° 0 mm 4 mps 744 mmHg 90%
    01:00 +8°C° 0 mm 4 mps 743 mmHg 89%
    02:00 +10°C° 0 mm 4 mps 742 mmHg 88%
    03:00 +10°C° 0 mm 4 mps 741 mmHg 86%
    04:00 +10°C° 0 mm 5 mps 741 mmHg 85%
    05:00 +10°C° 0 mm 5 mps 740 mmHg 84%
    06:00 +10°C° 0 mm 5 mps 740 mmHg 83%
    07:00 +12°C° 0 mm 5 mps 739 mmHg 82%
    08:00 +13°C° 0 mm 6 mps 739 mmHg 75%
    09:00 +15°C° 0 mm 7 mps 738 mmHg 69%
    10:00 +16°C° 0 mm 8 mps 738 mmHg 62%
    11:00 +14°C° 0.4 mm 7 mps 738 mmHg 70%
    12:00 +12°C° 0.4 mm 7 mps 738 mmHg 78%
    13:00 +10°C° 0.4 mm 7 mps 738 mmHg 86%
    14:00 +9°C° 0.3 mm 6 mps 738 mmHg 86%
    15:00 +9°C° 0.3 mm 6 mps 738 mmHg 86%
    16:00 +8°C° 0.3 mm 5 mps 739 mmHg 87%
    17:00 +7°C° 0 mm 5 mps 739 mmHg 88%
    18:00 +7°C° 0 mm 4 mps 740 mmHg 90%
    19:00 +6°C° 0 mm 4 mps 740 mmHg 92%
    20:00 +5°C° 0 mm 4 mps 740 mmHg 93%
    21:00 +5°C° 0 mm 4 mps 740 mmHg 93%
    22:00 +4°C° 0 mm 4 mps 741 mmHg 93%
    23:00 +4°C° 0 mm 4 mps 740 mmHg 93%
    Show more